Total_Precipitation_Accumulation
0.00 0.00 0.00 0.00 0.00 0.00 0.00 0.00 0.00 0.00 0.00 0.00 0.00 0.00 0.00 0.00 0.00 0.00 0.00 0.00 0.00 0.00 0.00 0.00 0.00 0.00 0.00 0.00 0.00 0.00 0.00 0.00 0.00 0.00 0.00 0.00 0.00 0.00 0.01 0.00 0.00 0.03 0.14 0.16 0.03 0.02 0.06 0.02 0.02
0.00 0.00 0.00 0.00 0.00 0.00 0.00 0.00 0.00 0.00 0.00 0.00 0.00 0.00 0.00 0.00 0.00 0.00 0.00 0.00 0.00 0.00 0.00 0.00 0.00 0.00 0.00 0.00 0.00 0.00 0.00 0.00 0.00 0.00 0.00 0.01 0.00 0.01 0.05 0.01 0.01 0.10 0.18 0.25 0.26 0.20 0.11 0.03 0.01
0.00 0.00 0.00 0.00 0.00 0.00 0.00 0.00 0.00 0.00 0.00 0.00 0.00 0.00 0.00 0.00 0.00 0.00 0.00 0.00 0.00 0.00 0.00 0.00 0.00 0.00 0.00 0.00 0.00 0.00 0.00 0.00 0.00 0.00 0.00 0.00 0.03 0.17 0.22 0.20 0.19 0.29 0.31 0.36 0.37 0.35 0.24 0.05 0.00
0.00 0.00 0.00 0.00 0.00 0.00 0.00 0.00 0.00 0.00 0.00 0.00 0.00 0.00 0.00 0.00 0.00 0.00 0.00 0.00 0.00 0.00 0.00 0.00 0.00 0.00 0.00 0.00 0.00 0.00 0.00 0.00 0.01 0.01 0.00 0.01 0.25 0.45 0.44 0.41 0.37 0.35 0.40 0.32 0.29 0.39 0.18 0.01 0.00
0.00 0.00 0.00 0.00 0.00 0.00 0.00 0.00 0.00 0.00 0.00 0.00 0.00 0.00 0.00 0.00 0.00 0.00 0.00 0.00 0.00 0.00 0.00 0.00 0.00 0.00 0.00 0.00 0.00 0.00 0.00 0.00 0.01 0.05 0.10 0.38 0.62 0.62 0.69 0.46 0.37 0.30 0.31 0.41 0.38 0.28 0.18 0.07 0.03
0.00 0.00 0.00 0.00 0.00 0.00 0.00 0.00 0.00 0.00 0.00 0.00 0.00 0.00 0.00 0.00 0.00 0.00 0.00 0.00 0.00 0.00 0.00 0.00 0.00 0.00 0.00 0.00 0.00 0.00 0.02 0.03 0.06 0.17 0.40 0.54 0.20 0.05 0.21 0.23 0.18 0.20 0.28 0.33 0.37 0.29 0.27 0.17 0.27
0.00 0.00 0.00 0.00 0.00 0.00 0.00 0.00 0.00 0.00 0.00 0.00 0.00 0.00 0.00 0.00 0.00 0.00 0.00 0.00 0.00 0.00 0.00 0.00 0.00 0.00 0.00 0.00 0.00 0.00 0.00 0.01 0.01 0.12 0.17 0.08 0.02 0.01 0.02 0.01 0.01 0.04 0.15 0.21 0.27 0.26 0.38 0.57 0.53
0.00 0.00 0.00 0.00 0.00 0.00 0.00 0.00 0.00 0.00 0.00 0.00 0.00 0.00 0.00 0.00 0.00 0.00 0.00 0.00 0.00 0.00 0.00 0.00 0.00 0.00 0.00 0.00 0.00 0.00 0.00 0.00 0.02 0.12 0.14 0.06 0.05 0.02 0.01 0.02 0.01 0.01 0.08 0.26 0.36 0.46 0.61 0.57 0.53
0.00 0.00 0.00 0.00 0.00 0.00 0.00 0.00 0.00 0.00 0.00 0.00 0.00 0.00 0.00 0.00 0.00 0.00 0.00 0.00 0.00 0.00 0.00 0.00 0.00 0.00 0.00 0.00 0.00 0.01 0.02 0.03 0.06 0.08 0.07 0.08 0.12 0.07 0.02 0.02 0.03 0.08 0.10 0.23 0.44 0.59 0.63 0.53 0.45
0.00 0.00 0.00 0.00 0.00 0.00 0.00 0.00 0.00 0.00 0.00 0.00 0.00 0.00 0.00 0.00 0.00 0.00 0.00 0.00 0.00 0.00 0.00 0.00 0.00 0.00 0.00 0.00 0.01 0.02 0.04 0.04 0.05 0.05 0.07 0.09 0.06 0.08 0.05 0.07 0.09 0.10 0.21 0.34 0.52 0.58 0.46 0.36 0.25
0.00 0.00 0.00 0.00 0.00 0.00 0.00 0.00 0.00 0.00 0.00 0.00 0.00 0.00 0.00 0.00 0.00 0.00 0.00 0.00 0.00 0.00 0.00 0.00 0.00 0.00 0.00 0.00 0.01 0.02 0.04 0.04 0.07 0.11 0.17 0.17 0.16 0.13 0.09 0.17 0.11 0.14 0.31 0.44 0.57 0.55 0.42 0.26 0.24
0.00 0.00 0.00 0.00 0.00 0.00 0.00 0.00 0.00 0.00 0.00 0.00 0.00 0.00 0.00 0.00 0.00 0.00 0.00 0.00 0.00 0.00 0.00 0.00 0.00 0.00 0.00 0.00 0.00 0.01 0.02 0.03 0.03 0.06 0.08 0.10 0.11 0.12 0.13 0.15 0.18 0.12 0.30 0.46 0.46 0.37 0.31 0.32 0.34
0.00 0.00 0.00 0.00 0.00 0.00 0.00 0.00 0.00 0.00 0.00 0.00 0.00 0.00 0.00 0.00 0.00 0.00 0.00 0.00 0.00 0.00 0.00 0.00 0.00 0.00 0.00 0.00 0.00 0.00 0.01 0.02 0.02 0.03 0.03 0.05 0.08 0.05 0.09 0.16 0.23 0.18 0.32 0.41 0.32 0.40 0.32 0.34 0.35
0.00 0.00 0.00 0.00 0.00 0.00 0.00 0.00 0.00 0.00 0.00 0.00 0.00 0.00 0.00 0.00 0.00 0.00 0.00 0.00 0.00 0.00 0.00 0.00 0.00 0.00 0.00 0.00 0.00 0.00 0.00 0.01 0.01 0.01 0.01 0.02 0.05 0.07 0.11 0.22 0.35 0.28 0.28 0.39 0.45 0.31 0.39 0.37 0.48
0.00 0.00 0.00 0.00 0.00 0.00 0.00 0.00 0.00 0.00 0.00 0.00 0.00 0.00 0.00 0.00 0.00 0.00 0.00 0.00 0.00 0.00 0.00 0.00 0.00 0.00 0.00 0.00 0.00 0.00 0.00 0.01 0.01 0.00 0.01 0.01 0.02 0.07 0.10 0.17 0.27 0.36 0.44 0.36 0.63 0.61 0.45 0.47 0.73
0.00 0.00 0.00 0.00 0.00 0.00 0.00 0.00 0.00 0.00 0.00 0.00 0.00 0.00 0.00 0.00 0.00 0.00 0.00 0.00 0.00 0.00 0.00 0.00 0.00 0.00 0.00 0.00 0.00 0.00 0.00 0.00 0.01 0.01 0.01 0.01 0.02 0.05 0.10 0.13 0.33 0.35 0.50 0.36 0.44 0.69 0.50 0.45 0.65
0.00 0.00 0.00 0.00 0.00 0.00 0.00 0.00 0.00 0.00 0.00 0.00 0.00 0.00 0.00 0.00 0.00 0.00 0.00 0.00 0.00 0.00 0.00 0.00 0.00 0.00 0.00 0.00 0.01 0.01 0.00 0.00 0.01 0.01 0.01 0.01 0.01 0.04 0.07 0.07 0.16 0.47 0.37 0.35 0.47 0.57 0.60 0.41 0.51
0.00 0.00 0.00 0.00 0.00 0.00 0.00 0.00 0.00 0.00 0.00 0.00 0.00 0.00 0.00 0.00 0.00 0.00 0.00 0.00 0.00 0.00 0.00 0.00 0.00 0.00 0.00 0.00 0.01 0.00 0.00 0.00 0.00 0.01 0.02 0.02 0.02 0.03 0.08 0.07 0.03 0.26 0.46 0.43 0.59 0.70 0.65 0.54 0.44
0.00 0.00 0.00 0.00 0.00 0.00 0.00 0.00 0.00 0.00 0.00 0.00 0.00 0.00 0.00 0.00 0.00 0.00 0.00 0.00 0.00 0.00 0.00 0.00 0.00 0.00 0.00 0.00 0.01 0.01 0.00 0.00 0.01 0.01 0.01 0.02 0.03 0.06 0.07 0.09 0.02 0.02 0.13 0.37 0.48 0.84 0.89 0.76 0.55
0.00 0.00 0.00 0.00 0.00 0.00 0.01 0.00 0.00 0.00 0.00 0.00 0.00 0.00 0.00 0.00 0.00 0.00 0.00 0.00 0.00 0.00 0.00 0.00 0.00 0.00 0.00 0.00 0.01 0.05 0.03 0.03 0.06 0.04 0.01 0.04 0.06 0.09 0.15 0.06 0.03 0.03 0.04 0.11 0.30 0.63 1.07 0.95 0.64
0.00 0.00 0.00 0.00 0.00 0.00 0.03 0.01 0.00 0.00 0.00 0.00 0.00 0.00 0.00 0.00 0.00 0.00 0.00 0.00 0.00 0.00 0.00 0.00 0.00 0.00 0.00 0.00 0.06 0.09 0.12 0.15 0.15 0.07 0.01 0.01 0.04 0.14 0.18 0.18 0.06 0.14 0.14 0.06 0.07 0.23 0.69 0.70 0.67
0.00 0.00 0.00 0.00 0.01 0.04 0.06 0.06 0.00 0.00 0.00 0.00 0.00 0.00 0.00 0.00 0.00 0.00 0.00 0.00 0.00 0.00 0.00 0.00 0.00 0.00 0.01 0.03 0.01 0.03 0.01 0.01 0.01 0.02 0.01 0.02 0.02 0.03 0.18 0.22 0.16 0.12 0.32 0.25 0.07 0.05 0.27 0.52 0.50
0.01 0.01 0.00 0.01 0.04 0.02 0.03 0.06 0.00 0.00 0.04 0.02 0.00 0.00 0.00 0.00 0.00 0.00 0.00 0.00 0.00 0.00 0.00 0.00 0.03 0.12 0.12 0.10 0.07 0.06 0.08 0.07 0.04 0.02 0.01 0.03 0.09 0.08 0.06 0.16 0.17 0.14 0.13 0.20 0.22 0.13 0.09 0.26 0.33
0.01 0.01 0.03 0.06 0.07 0.06 0.00 0.01 0.05 0.36 0.18 0.10 0.02 0.00 0.00 0.00 0.00 0.00 0.00 0.00 0.00 0.00 0.00 0.00 0.00 0.04 0.16 0.16 0.19 0.19 0.17 0.14 0.10 0.04 0.03 0.07 0.19 0.12 0.07 0.08 0.10 0.08 0.07 0.21 0.28 0.18 0.13 0.07 0.16
0.02 0.05 0.09 0.09 0.10 0.02 0.01 0.03 0.16 0.33 0.22 0.13 0.07 0.02 0.01 0.00 0.00 0.00 0.00 0.00 0.00 0.00 0.00 0.00 0.00 0.00 0.03 0.05 0.07 0.06 0.07 0.07 0.04 0.06 0.08 0.15 0.22 0.14 0.08 0.12 0.09 0.04 0.05 0.07 0.27 0.45 0.30 0.12 0.08
0.01 0.02 0.07 0.08 0.03 0.04 0.05 0.10 0.45 0.30 0.54 0.26 0.19 0.05 0.02 0.01 0.00 0.00 0.00 0.00 0.00 0.00 0.00 0.00 0.00 0.00 0.00 0.01 0.02 0.01 0.04 0.06 0.03 0.01 0.04 0.04 0.13 0.12 0.05 0.08 0.10 0.04 0.05 0.08 0.12 0.25 0.37 0.39 0.28
0.07 0.02 0.01 0.07 0.12 0.15 0.14 0.48 0.39 0.34 0.57 1.24 0.51 0.13 0.08 0.03 0.01 0.00 0.00 0.00 0.00 0.00 0.00 0.00 0.00 0.00 0.00 0.00 0.00 0.01 0.05 0.06 0.04 0.05 0.07 0.04 0.05 0.05 0.05 0.06 0.08 0.09 0.07 0.07 0.06 0.07 0.14 0.29 0.40
0.08 0.06 0.11 0.15 0.22 0.30 0.21 0.35 0.62 0.74 1.04 0.78 0.83 0.60 0.17 0.15 0.06 0.02 0.00 0.00 0.00 0.00 0.00 0.00 0.00 0.00 0.00 0.01 0.00 0.04 0.05 0.03 0.08 0.07 0.02 0.04 0.11 0.12 0.07 0.06 0.05 0.08 0.05 0.06 0.04 0.04 0.06 0.10 0.21
0.17 0.11 0.10 0.09 0.18 0.48 0.70 0.94 1.23 1.43 1.57 1.47 0.67 0.53 0.42 0.14 0.12 0.05 0.01 0.00 0.00 0.00 0.01 0.03 0.02 0.03 0.03 0.03 0.10 0.11 0.07 0.10 0.15 0.10 0.08 0.11 0.15 0.16 0.13 0.09 0.06 0.03 0.04 0.03 0.03 0.02 0.03 0.05 0.06
0.22 0.13 0.05 0.13 0.21 0.29 0.89 1.47 1.70 1.41 1.08 0.68 0.64 0.49 0.41 0.28 0.21 0.11 0.05 0.01 0.01 0.01 0.05 0.08 0.07 0.08 0.10 0.15 0.23 0.20 0.22 0.30 0.27 0.19 0.12 0.12 0.13 0.18 0.15 0.14 0.07 0.03 0.04 0.03 0.02 0.02 0.02 0.02 0.02